Location: *
(58.4167°N, 22.5000°E)
Time: 23:49:28
(UTC+00:00)

CZ-2C R/B - Pass Details

Date: 22 September 2019
Orbit: 785 x 870 km, 98.3° (Epoch: 17 October)

Event Time Altitude Azimuth Distance (km) Brightness Sun altitude
Rises 19:12:09 0° 17° (NNE) 3,435 6.1 -20.5°
Reaches altitude 10° 19:14:37 10° 23° (NNE) 2,505 5.3 -20.7°
Maximum altitude 19:20:02 50° 99° (E) 1,102 2.9 -21.3°
Enters shadow 19:21:05 44° 132° (SE) 1,185 3.0 -21.4°
